Flag Weather past 2 weeks in Waren (Müritz), Mecklenburg-Western Pomerania, Germany

Now
46 °F

Passing clouds.


Feels Like: 44 °F
Forecast: 47 / 60 °F
Wind: 6 mph from Southeast

Location: Laage

Current Time: Oct 31, 2014 at 5:09:36 AM

Latest Report: Oct 31, 2014 at 4:20 AM


Visibility: 4 mi

Pressure: 30.24 "Hg

Humidity: 93%

Dew point: 45 °F

Location of Waren (Müritz)Location

Historic Weather in Waren (Müritz) — Graph

°F

Waren (Müritz) temperature yesterday

Maximum temperature yesterday: 52 °F (at 11:20 AM)
Minimum temperature yesterday: 36 °F (at 7:20 AM)
Average temperature yesterday: 43 °F

Past Weeks' High & Low Weather Summary

 TemperatureHumidityPressure
High70 °F (Oct 19, 2:20 PM)100% (Oct 16, 8:20 AM)30.30 "Hg (Oct 16, 8:20 AM)
Low36 °F (Oct 30, 7:20 AM)63% (Oct 20, 3:20 PM)29.39 "Hg (Oct 21, 9:20 PM)
Average52 °F91%29.99 "Hg
* Reported Oct 16 4:20 AM — Oct 31 3:20 AM, Waren (Müritz), Weather by CustomWeather, © 2014

Note: Actual official high and low records may vary slightly from our data, if they occured in-between our weather recording intervals... More about our weather records

Advertising

Waren (Müritz) weather history for previous 24 hours

 ConditionsComfort  
Time TempWeatherWind HumidityBarometerVisibility
3:20 AM
Oct 31
46 °FPassing clouds.5 mph93%30.24 "HgN/A
2:20 AM46 °FPassing clouds.2 mph93%30.27 "HgN/A
1:20 AM46 °FPassing clouds.1 mph93%30.27 "HgN/A
12:20 AM45 °FPassing clouds.2 mph93%30.27 "HgN/A
11:20 PM
Oct 30
43 °FPassing clouds.3 mph100%30.27 "HgN/A
10:20 PM43 °FFog.2 mph93%30.30 "HgN/A
9:20 PM41 °FFog.6 mph100%30.27 "HgN/A
8:49 PM41 °FPassing clouds.No wind100%30.30 "Hg3 mi
8:20 PM41 °FPassing clouds.No wind93%30.27 "Hg1 mi
7:20 PM41 °FFog.No wind100%30.27 "Hg0 mi
6:20 PM43 °FFog.3 mph100%30.27 "Hg0 mi
5:20 PM45 °FPassing clouds.No wind93%30.27 "Hg1 mi
4:20 PM48 °FPartly sunny.No wind87%30.27 "HgN/A
3:20 PM50 °FPartly sunny.No wind88%30.27 "HgN/A
2:20 PM52 °FPartly sunny.No wind77%30.27 "HgN/A
1:20 PM52 °FPartly sunny.2 mph72%30.27 "HgN/A
12:20 PM52 °FPartly sunny.2 mph82%30.27 "HgN/A
11:20 AM52 °FPartly sunny.2 mph82%30.27 "HgN/A
10:20 AM48 °FFog.No wind94%30.27 "Hg2 mi
9:20 AM43 °FFog.No wind93%30.24 "Hg3 mi
8:20 AM37 °FFog.No wind100%30.24 "Hg1 mi
8:02 AM37 °FFog.No wind100%30.24 "Hg1 mi
7:20 AM36 °FFog.No wind100%30.21 "Hg0 mi
6:20 AM37 °FFog.No wind100%30.21 "Hg0 mi
5:20 AM39 °FFog.No wind100%30.18 "HgN/A
Weather by CustomWeather, © 2014

See weather overviewHow to use our weather pages